| time (UTC) | temp C | wind direction | speed KPH | gust KPH | rain 1hr cm | rain 24hr cm | rain mn cm | humidity % | barometer mb |
| 20260906080029 | 20 | 0.0 | 19.3 | 0.00 | 0.00 | 0.00 | 85 | 1014.7 | |
| 20260906074526 | 20 | 0.0 | 14.5 | 0.00 | 0.00 | 0.00 | 86 | 1014.7 | |
| 20260906073025 | 20 | 0.0 | 14.5 | 0.00 | 0.00 | 0.00 | 86 | 1014.6 | |
| 20260906071524 | 20 | 0.0 | 12.9 | 0.00 | 0.00 | 0.00 | 86 | 1014.6 | |
| 20260906070022 | 20 | 0.0 | 20.9 | 0.00 | 0.00 | 0.00 | 86 | 1014.5 | |
| 20260906064532 | 20 | 0.0 | 16.1 | 0.00 | 0.00 | 0.00 | 87 | 1014.6 | |
| 20260906063021 | 20 | 0.0 | 16.1 | 0.00 | 0.00 | 0.00 | 88 | 1014.6 | |
| 20260906061524 | 20 | 0.0 | 9.7 | 0.00 | 0.00 | 0.00 | 88 | 1014.7 | |
| 20260906060021 | 20 | 0.0 | 14.5 | 0.00 | 0.00 | 0.00 | 87 | 1014.5 | |
| 20260906054526 | 20 | 0.0 | 14.5 | 0.00 | 0.00 | 0.00 | 88 | 1014.4 | |
| 20260906053015 | 20 | 0.0 | 19.3 | 0.00 | 0.00 | 0.00 | 88 | 1014.2 | |
| 20260906051517 | 20 | 0.0 | 14.5 | 0.00 | 0.00 | 0.00 | 88 | 1014.2 | |
| 20260906050013 | 20 | 0.0 | 9.7 | 0.00 | 0.00 | 0.00 | 88 | 1014.2 | |
| 20260906044512 | 20 | 0.0 | 9.7 | 0.00 | 0.00 | 0.00 | 89 | 1014.0 | |
| 20260906043019 | 21 | 0.0 | 9.7 | 0.00 | 0.00 | 0.00 | 88 | 1013.9 | |
| 20260906041508 | 21 | 0.0 | 14.5 | 0.00 | 0.00 | 0.00 | 88 | 1013.9 | |
| 20260906040005 | 21 | 0.0 | 16.1 | 0.00 | 0.00 | 0.00 | 88 | 1013.9 | |
| 20260906034505 | 21 | 0.0 | 16.1 | 0.00 | 0.00 | 0.00 | 89 | 1014.0 | |
| 20260906033005 | 21 | 0.0 | 14.5 | 0.00 | 0.00 | 0.00 | 88 | 1014.1 | |
| 20260906031502 | 21 | 0.0 | 16.1 | 0.00 | 0.00 | 0.00 | 89 | 1014.0 | |
| 20260906030101 | 22 | 0.0 | 16.1 | 0.00 | 0.00 | 0.00 | 88 | 1013.7 | |
| 20260906024559 | 22 | 0.0 | 20.9 | 0.00 | 0.00 | 0.00 | 88 | 1013.4 | |
| 20260906023106 | 22 | 0.0 | 20.9 | 0.00 | 0.00 | 0.00 | 88 | 1013.3 | |
| 20260906021558 | 22 | 0.0 | 25.7 | 0.00 | 0.00 | 0.00 | 88 | 1013.2 | |
| 20260906020056 | 22 | 0.0 | 19.3 | 0.00 | 0.00 | 0.00 | 88 | 1013.0 | |
| 20260906014604 | 23 | 0.0 | 22.5 | 0.00 | 0.00 | 0.00 | 88 | 1012.7 | |
| 20260906013055 | 23 | 0.0 | 25.7 | 0.00 | 0.00 | 0.00 | 88 | 1012.3 | |
| 20260906011559 | 24 | 0.0 | 20.9 | 0.00 | 0.00 | 0.00 | 88 | 1012.2 | |
| 20260906010053 | 24 | 0.0 | 22.5 | 0.00 | 0.00 | 0.00 | 88 | 1011.9 | |
| 20260906004552 | 24 | 0.0 | 17.7 | 0.00 | 0.00 | 0.00 | 88 | 1011.9 | |
| 20260906003053 | 24 | 0.0 | 17.7 | 0.00 | 0.00 | 0.00 | 87 | 1011.7 | |
| 20260906001553 | 25 | 0.0 | 20.9 | 0.00 | 0.00 | 0.00 | 85 | 1011.4 | |
| 20260906000052 | 26 | 0.0 | 14.5 | 0.00 | 0.00 | 0.00 | 82 | 1011.2 | |
| 20260905234551 | 27 | 0.0 | 22.5 | 0.00 | 0.00 | 0.00 | 80 | 1011.3 | |
| 20260905233051 | 27 | 0.0 | 14.5 | 0.00 | 0.00 | 0.00 | 80 | 1011.2 | |
| 20260905231550 | 28 | 0.0 | 6.4 | 0.00 | 0.00 | 0.00 | 79 | 1010.8 | |
| 20260905230049 | 28 | 0.0 | 8.0 | 0.00 | 0.00 | 0.00 | 78 | 1010.7 | |
| 20260905224548 | 29 | 0.0 | 9.7 | 0.00 | 0.00 | 0.00 | 76 | 1010.8 | |
| 20260905223048 | 29 | 0.0 | 9.7 | 0.00 | 0.00 | 0.00 | 76 | 1010.8 | |
| 20260905221548 | 29 | 0.0 | 8.0 | 0.00 | 0.00 | 0.00 | 77 | 1010.9 | |
| 20260905220047 | 28 | 0.0 | 16.1 | 0.00 | 0.00 | 0.00 | 78 | 1010.7 | |
| 20260905214546 | 29 | 0.0 | 16.1 | 0.00 | 0.00 | 0.00 | 75 | 1010.4 | |
| 20260905213048 | 29 | 0.0 | 17.7 | 0.00 | 0.00 | 0.00 | 75 | 1010.4 | |
| 20260905211546 | 30 | 0.0 | 16.1 | 0.00 | 0.00 | 0.00 | 75 | 1010.5 | |
| 20260905210045 | 30 | 0.0 | 22.5 | 0.00 | 0.00 | 0.00 | 76 | 1010.3 | |
| 20260905204541 | 30 | 0.0 | 20.9 | 0.00 | 0.00 | 0.00 | 77 | 1010.3 | |
| 20260905203041 | 28 | 0.0 | 16.1 | 0.00 | 0.00 | 0.00 | 79 | 1010.6 | |
| 20260905201540 | 30 | 0.0 | 12.9 | 0.00 | 0.00 | 0.00 | 73 | 1010.5 | |
| 20260905200045 | 30 | 0.0 | 14.5 | 0.00 | 0.00 | 0.00 | 74 | 1010.6 | |
| 20260905194638 | 30 | 0.0 | 12.9 | 0.00 | 0.00 | 0.00 | 72 | 1010.9 | |
| 20260905193037 | 30 | 0.0 | 14.5 | 0.00 | 0.00 | 0.00 | 70 | 1011.1 | |
| 20260905191541 | 31 | 0.0 | 16.1 | 0.00 | 0.00 | 0.00 | 68 | 1011.2 | |
| 20260905190045 | 31 | 0.0 | 20.9 | 0.00 | 0.00 | 0.00 | 69 | 1011.3 | |
| 20260905184539 | 30 | 0.0 | 22.5 | 0.00 | 0.00 | 0.00 | 69 | 1011.5 | |
| 20260905183029 | 30 | 360 | 0.0 | 20.9 | 0.00 | 0.00 | 0.00 | 68 | 1011.6 |
| 20260905181528 | 30 | 0.0 | 17.7 | 0.00 | 0.00 | 0.00 | 68 | 1011.7 | |
| 20260905180028 | 30 | 0.0 | 17.7 | 0.00 | 0.00 | 0.00 | 68 | 1011.9 | |
| 20260905174527 | 30 | 0.0 | 19.3 | 0.00 | 0.00 | 0.00 | 68 | 1012.0 | |
| 20260905173024 | 29 | 0.0 | 20.9 | 0.00 | 0.00 | 0.00 | 68 | 1012.2 | |
| 20260905171525 | 29 | 0.0 | 22.5 | 0.00 | 0.00 | 0.00 | 68 | 1012.4 | |
| 20260905170021 | 28 | 0.0 | 22.5 | 0.00 | 0.00 | 0.00 | 68 | 1012.5 | |
| 20260905164519 | 28 | 0.0 | 22.5 | 0.00 | 0.00 | 0.00 | 69 | 1012.7 | |
| 20260905163016 | 27 | 0.0 | 20.9 | 0.00 | 0.00 | 0.00 | 72 | 1012.9 | |
| 20260905161515 | 27 | 0.0 | 22.5 | 0.00 | 0.00 | 0.00 | 73 | 1013.2 | |
| 20260905160018 | 27 | 0.0 | 17.7 | 0.00 | 0.00 | 0.00 | 74 | 1012.9 | |
| 20260905154510 | 26 | 0.0 | 20.9 | 0.00 | 0.00 | 0.00 | 75 | 1012.9 | |
| 20260905153006 | 25 | 0.0 | 14.5 | 0.00 | 0.00 | 0.00 | 79 | 1012.7 | |
| 20260905151508 | 24 | 0.0 | 12.9 | 0.00 | 0.00 | 0.00 | 81 | 1013.0 | |
| 20260905150003 | 24 | 0.0 | 17.7 | 0.00 | 0.00 | 0.00 | 81 | 1013.3 | |
| 20260905144504 | 24 | 0.0 | 19.3 | 0.00 | 0.00 | 0.00 | 82 | 1012.9 | |
| 20260905143100 | 23 | 0.0 | 24.1 | 0.00 | 0.00 | 0.00 | 82 | 1012.7 | |
| 20260905141609 | 23 | 0.0 | 22.5 | 0.00 | 0.00 | 0.00 | 83 | 1012.6 | |
| 20260905140106 | 23 | 0.0 | 22.5 | 0.00 | 0.00 | 0.00 | 84 | 1012.6 | |
| 20260905134555 | 23 | 0.0 | 27.4 | 0.00 | 0.00 | 0.00 | 84 | 1012.3 | |
| 20260905133055 | 22 | 0.0 | 27.4 | 0.00 | 0.00 | 0.00 | 85 | 1012.1 | |
| 20260905131612 | 22 | 0.0 | 24.1 | 0.00 | 0.00 | 0.00 | 87 | 1012.3 | |
| 20260905130048 | 21 | 0.0 | 25.7 | 0.00 | 0.00 | 0.00 | 88 | 1012.4 | |
| 20260905124545 | 21 | 0.0 | 25.7 | 0.00 | 0.00 | 0.00 | 88 | 1012.4 | |
| 20260905123041 | 21 | 0.0 | 20.9 | 0.00 | 0.00 | 0.00 | 89 | 1012.7 | |
| 20260905121539 | 21 | 0.0 | 16.1 | 0.00 | 0.00 | 0.00 | 89 | 1012.8 | |
| 20260905120037 | 20 | 0.0 | 9.7 | 0.00 | 0.00 | 0.00 | 89 | 1012.8 | |
| 20260905114536 | 20 | 0.0 | 9.7 | 0.00 | 0.00 | 0.00 | 89 | 1012.7 | |
| 20260905113033 | 20 | 0.0 | 16.1 | 0.00 | 0.00 | 0.00 | 89 | 1012.5 | |
| 20260905111536 | 21 | 0.0 | 12.9 | 0.00 | 0.00 | 0.00 | 88 | 1012.4 | |
| 20260905110031 | 21 | 0.0 | 16.1 | 0.00 | 0.00 | 0.00 | 88 | 1012.3 | |
| 20260905104536 | 21 | 0.0 | 16.1 | 0.00 | 0.00 | 0.00 | 88 | 1012.3 | |
| 20260905103029 | 21 | 0.0 | 17.7 | 0.00 | 0.00 | 0.00 | 87 | 1012.4 | |
| 20260905101527 | 21 | 0.0 | 22.5 | 0.00 | 0.00 | 0.00 | 86 | 1012.5 | |
| 20260905100024 | 22 | 0.0 | 27.4 | 0.00 | 0.00 | 0.00 | 86 | 1012.5 | |
| 20260905094520 | 23 | 0.0 | 27.4 | 0.00 | 0.00 | 0.00 | 88 | 1012.5 | |
| 20260905093020 | 23 | 0.0 | 19.3 | 0.00 | 0.00 | 0.00 | 89 | 1012.2 | |
| 20260905091517 | 23 | 0.0 | 3.2 | 0.00 | 0.00 | 0.00 | 89 | 1011.5 | |
| 20260905090016 | 23 | 0.0 | 3.2 | 0.00 | 0.00 | 0.00 | 89 | 1011.3 | |
| 20260905084515 | 23 | 0.0 | 6.4 | 0.00 | 0.00 | 0.00 | 89 | 1011.3 | |
| 20260905083014 | 23 | 0.0 | 8.0 | 0.00 | 0.00 | 0.00 | 88 | 1011.5 | |
| 20260905081513 | 24 | 0.0 | 3.2 | 0.00 | 0.00 | 0.00 | 88 | 1011.3 |